Location: Marengo
(51.4813°N, 109.7825°W)
Time: 23:21:57
(UTC+00:00)

Envisat - Pass Details

Date: 01 February 2022
Orbit: 764 x 765 km, 98.2° (Epoch: 22 May)

Event Time Altitude Azimuth Distance (km) Brightness Sun altitude
Rises 13:52:23 0° 6° (N) 3,245 6.2 -10.2°
Reaches altitude 10° 13:55:09 10° 351° (N) 2,314 5.3 -9.8°
Maximum altitude 13:58:58 22° 303° (WNW) 1,639 4.2 -9.2°
Drops below altitude 10° 14:02:46 10° 254° (WSW) 2,304 5.0 -8.7°
Sets 14:05:31 0° 239° (WSW) 3,226 5.8 -8.3°
